Вернуться в каталог

STARLINK-32835

АктивенСвязьVLEO
NORAD 63051·PAYLOAD·🇺🇸 United States

Запущен Feb 18, 2025 с Cape Canaveral Space Force Station

Loading…

Ближайшие Пролёты (ближайшие 24 часа)

TLE

СвежийSource: CelesTrak SupGP

Эпоха: Sep 15, 2026, 02:17 UTC

1 63051C 25034Y   26258.09562500  .00030396  00000+0  89870-3 0  2582
2 63051  53.1576 107.1444 0001178  85.5561 218.8562 15.34352789    12

Отслеживайте STARLINK-32835 в реальном времени с AllMySat

Download on the App Store